LEMUR-2-KUNGFOO (42774 NORAD) Tracking and Keplerian Element Data

This shows tracking and keplerian element data for the satellite.

Feedback or suggestion? Click here.




ElementValue
Catalog42774
NameLEMUR-2-KUNGFOO
Epoch Orbit3589
Epoch Day45.81977284
Epoch Year2018
RAAN107.2949
Inclination97.4186
Eccentricity0.0015895
Argument of Perigee130.0584
Mean Anonmoly230.2048
Mean Motion15.20810392
Decay Rate1.581E-05
L11 42774U 17036K 18045.81977284 .00001581 00000-0 74627-4 0 9990
L22 42774 97.4186 107.2949 0015895 130.0584 230.2048 15.20810392 35897

Live tracking and technical data element details for LEMUR-2-KUNGFOO (NORAD 42774). LEMUR-2-KUNGFOO can be tracked NOW for your location showing map with azimuth and elevation plus other details from your city location.

Track the satellite on the map from your city or location and see movement details for azimuth, elevation, latitude, longitude, range, height, and movement on the map or in text.







IsCatalogInMostPopularTable: catalog: 42774, numindb: 112
Update: records affected: 1



GetName: 42774 LEMUR-2-KUNGFOO

Hit Count: updated at: Mon, 19 Nov 2018 11:32:26 GMT